Location: Christchurch
(43.5330°S, 172.6330°E)
Time: 01:05:38
(UTC+12:00)

Cosmos 1818 - Pass Details

Date: 24 January 2019
Orbit: 772 x 802 km, 65.0° (Epoch: 22 April)

Event Time Altitude Azimuth Distance (km) Brightness Sun altitude
Exits shadow 23:47:48 19° 323° (NW) 1,796 5.2 -22.0°
Maximum altitude 23:51:44 82° 237° (WSW) 802 3.5 -22.4°
Drops below altitude 10° 23:57:11 10° 147° (SSE) 2,358 6.4 -22.8°
Sets 23:59:36 0° 146° (SE) 3,288 7.2 -23.0°
